Location: Ferintosh
(52.7647°N, 112.9692°W)
Time: 00:42:10
(UTC+00:00)

Vanguard 1 Rocket - Pass Details

Date: 23 May 2024
Orbit: 649 x 4221 km, 34.3° (Epoch: 13 June)

Event Time Altitude Azimuth Distance (km) Brightness Sun altitude
Rises 17:23:41 0° 237° (WSW) 8,026 12.1 50.0°
Reaches altitude 10° 17:30:32 10° 230° (SW) 6,557 11.8 50.8°
Maximum altitude 17:46:01 32° 177° (S) 3,567 11.5 52.4°
Drops below altitude 10° 17:55:18 10° 119° (ESE) 3,914 11.4 53.3°
Sets 17:58:11 0° 109° (ESE) 4,520 11.4 53.6°
